TimeEDT,TemperatureF,Dew PointF,Humidity,Sea Level PressureIn,VisibilityMPH,Wind Direction,Wind SpeedMPH,Gust SpeedMPH,PrecipitationIn,Events,Conditions,WindDirDegrees,DateUTC
12:15 AM,65.8,59.0,79,30.04,10.0,Calm,Calm,-,N/A,,Unknown,0,2013-07-26 04:15:00
12:35 AM,65.7,59.0,79,30.04,10.0,Calm,Calm,-,N/A,,Clear,0,2013-07-26 04:35:00
12:55 AM,65.3,59.2,81,30.04,10.0,Calm,Calm,-,N/A,,Unknown,0,2013-07-26 04:55:00
1:15 AM,64.9,59.5,83,30.04,10.0,Calm,Calm,-,N/A,,Unknown,0,2013-07-26 05:15:00
1:35 AM,64.6,59.7,84,30.04,10.0,Calm,Calm,-,N/A,,Clear,0,2013-07-26 05:35:00
1:55 AM,63.7,59.5,86,30.04,10.0,Calm,Calm,-,N/A,,Unknown,0,2013-07-26 05:55:00
2:15 AM,64.0,59.7,86,30.04,10.0,Calm,Calm,-,N/A,,Unknown,0,2013-07-26 06:15:00
2:35 AM,63.9,59.9,87,30.03,10.0,Calm,Calm,-,N/A,,Unknown,0,2013-07-26 06:35:00
2:55 AM,63.7,59.4,86,30.03,10.0,Calm,Calm,-,N/A,,Unknown,0,2013-07-26 06:55:00
3:15 AM,62.6,58.8,87,30.03,10.0,Calm,Calm,-,N/A,,Unknown,0,2013-07-26 07:15:00
3:35 AM,62.8,59.2,88,30.03,10.0,Calm,Calm,-,N/A,,Unknown,0,2013-07-26 07:35:00
3:55 AM,62.8,59.4,89,30.03,10.0,Calm,Calm,-,N/A,,Unknown,0,2013-07-26 07:55:00
4:15 AM,63.0,59.0,87,30.03,10.0,Calm,Calm,-,N/A,,Unknown,0,2013-07-26 08:15:00
4:35 AM,62.6,59.0,88,30.04,10.0,West,3.5,-,N/A,,Unknown,280,2013-07-26 08:35:00
4:55 AM,61.9,59.4,91,30.05,10.0,Calm,Calm,-,N/A,,Unknown,0,2013-07-26 08:55:00
5:15 AM,61.2,59.4,94,30.06,10.0,Calm,Calm,-,N/A,,Unknown,0,2013-07-26 09:15:00
5:35 AM,61.7,60.1,94,30.05,10.0,Calm,Calm,-,N/A,,Unknown,0,2013-07-26 09:35:00
5:55 AM,61.5,59.9,94,30.06,10.0,Calm,Calm,-,N/A,,Unknown,0,2013-07-26 09:55:00
6:15 AM,61.7,60.1,94,30.06,10.0,Calm,Calm,-,N/A,,Unknown,0,2013-07-26 10:15:00
6:35 AM,61.0,59.9,96,30.06,10.0,Calm,Calm,-,N/A,,Unknown,0,2013-07-26 10:35:00
6:55 AM,61.7,60.3,95,30.06,10.0,Calm,Calm,-,N/A,,Unknown,0,2013-07-26 10:55:00
7:15 AM,62.1,61.0,96,30.07,10.0,Calm,Calm,-,N/A,,Unknown,0,2013-07-26 11:15:00
7:35 AM,64.4,61.7,91,30.08,10.0,Calm,Calm,-,N/A,,Unknown,0,2013-07-26 11:35:00
7:55 AM,65.8,61.9,87,30.09,10.0,Calm,Calm,-,N/A,,Unknown,0,2013-07-26 11:55:00
8:15 AM,67.5,61.2,80,30.09,10.0,WNW,4.6,-,N/A,,Unknown,290,2013-07-26 12:15:00
8:35 AM,68.7,61.2,77,30.10,10.0,WNW,4.6,-,N/A,,Unknown,300,2013-07-26 12:35:00
8:55 AM,69.8,61.7,75,30.10,10.0,Calm,Calm,-,N/A,,Unknown,0,2013-07-26 12:55:00
9:15 AM,71.2,62.1,73,30.10,10.0,NE,4.6,-,N/A,,Unknown,40,2013-07-26 13:15:00
9:35 AM,72.5,62.6,71,30.10,10.0,North,4.6,-,N/A,,Unknown,350,2013-07-26 13:35:00
9:55 AM,74.7,61.3,63,30.10,10.0,North,5.8,-,N/A,,Unknown,10,2013-07-26 13:55:00
10:15 AM,75.7,61.0,60,30.10,10.0,ENE,3.5,-,N/A,,Clear,60,2013-07-26 14:15:00
10:35 AM,76.6,61.7,60,30.10,10.0,NNW,3.5,-,N/A,,Clear,340,2013-07-26 14:35:00
10:55 AM,77.0,61.9,59,30.10,10.0,Calm,Calm,-,N/A,,Clear,0,2013-07-26 14:55:00
11:15 AM,78.3,61.5,56,30.09,10.0,NE,3.5,-,N/A,,Clear,50,2013-07-26 15:15:00
11:35 AM,77.4,60.8,57,30.09,10.0,Calm,Calm,-,N/A,,Clear,0,2013-07-26 15:35:00
11:55 AM,77.9,58.8,52,30.08,10.0,NE,4.6,-,N/A,,Scattered Clouds,50,2013-07-26 15:55:00
12:15 PM,81.7,61.7,51,30.08,10.0,Calm,Calm,-,N/A,,Scattered Clouds,0,2013-07-26 16:15:00
12:35 PM,78.6,59.7,52,30.08,10.0,Calm,Calm,-,N/A,,Mostly Cloudy,0,2013-07-26 16:35:00
12:55 PM,81.9,59.5,47,30.07,10.0,Calm,Calm,-,N/A,,Mostly Cloudy,0,2013-07-26 16:55:00
1:15 PM,79.7,59.0,49,30.07,10.0,Calm,Calm,-,N/A,,Mostly Cloudy,0,2013-07-26 17:15:00
1:35 PM,81.9,57.9,44,30.07,10.0,Calm,Calm,-,N/A,,Scattered Clouds,0,2013-07-26 17:35:00
1:55 PM,81.7,58.3,45,30.07,10.0,Calm,Calm,-,N/A,,Scattered Clouds,0,2013-07-26 17:55:00
2:15 PM,84.0,56.5,39,30.06,10.0,SW,4.6,-,N/A,,Scattered Clouds,220,2013-07-26 18:15:00
2:35 PM,84.9,57.2,39,30.06,10.0,West,5.8,-,N/A,,Mostly Cloudy,270,2013-07-26 18:35:00
2:55 PM,86.5,54.5,33,30.05,10.0,WSW,5.8,-,N/A,,Mostly Cloudy,240,2013-07-26 18:55:00
3:15 PM,84.9,55.8,37,30.05,10.0,West,9.2,-,N/A,,Scattered Clouds,280,2013-07-26 19:15:00
3:35 PM,83.8,55.2,37,30.05,10.0,Calm,Calm,-,N/A,,Scattered Clouds,0,2013-07-26 19:35:00
3:55 PM,85.8,55.8,36,30.04,10.0,WSW,8.1,-,N/A,,Scattered Clouds,250,2013-07-26 19:55:00
4:15 PM,84.6,56.7,38,30.04,10.0,Calm,Calm,-,N/A,,Mostly Cloudy,0,2013-07-26 20:15:00
4:35 PM,86.0,56.8,37,30.04,10.0,Calm,Calm,-,N/A,,Mostly Cloudy,0,2013-07-26 20:35:00
4:55 PM,85.1,56.1,37,30.04,10.0,WSW,5.8,-,N/A,,Clear,240,2013-07-26 20:55:00
5:15 PM,84.4,56.8,39,30.03,10.0,Calm,Calm,-,N/A,,Clear,0,2013-07-26 21:15:00
5:35 PM,85.3,57.4,39,30.03,10.0,West,5.8,-,N/A,,Mostly Cloudy,280,2013-07-26 21:35:00
5:55 PM,83.3,57.7,42,30.02,10.0,South,4.6,-,N/A,,Scattered Clouds,190,2013-07-26 21:55:00
6:15 PM,82.4,59.9,46,30.03,10.0,SW,5.8,-,N/A,,Mostly Cloudy,220,2013-07-26 22:15:00
6:35 PM,83.1,58.8,44,30.03,10.0,SSW,5.8,-,N/A,,Scattered Clouds,210,2013-07-26 22:35:00
6:55 PM,83.3,59.5,44,30.03,10.0,SSW,4.6,-,N/A,,Clear,200,2013-07-26 22:55:00
7:15 PM,82.4,60.3,47,30.03,10.0,SSW,3.5,-,N/A,,Clear,200,2013-07-26 23:15:00
7:35 PM,79.7,61.5,54,30.03,10.0,SSW,4.6,-,N/A,,Clear,200,2013-07-26 23:35:00
7:55 PM,77.9,63.5,61,30.03,10.0,South,3.5,-,N/A,,Clear,190,2013-07-26 23:55:00
8:15 PM,76.5,64.6,67,30.03,10.0,South,3.5,-,N/A,,Clear,190,2013-07-27 00:15:00
8:35 PM,74.8,64.0,69,30.03,10.0,Calm,Calm,-,N/A,,Clear,0,2013-07-27 00:35:00
8:55 PM,73.4,63.7,71,30.03,10.0,Calm,Calm,-,N/A,,Clear,0,2013-07-27 00:55:00
9:15 PM,72.5,63.7,74,30.04,10.0,Calm,Calm,-,N/A,,Unknown,0,2013-07-27 01:15:00
9:35 PM,71.6,63.7,76,30.04,10.0,Calm,Calm,-,N/A,,Unknown,0,2013-07-27 01:35:00
9:55 PM,70.9,63.0,76,30.04,10.0,Calm,Calm,-,N/A,,Unknown,0,2013-07-27 01:55:00
10:15 PM,69.8,63.5,80,30.05,10.0,Calm,Calm,-,N/A,,Unknown,0,2013-07-27 02:15:00
10:35 PM,68.9,63.1,82,30.06,10.0,Calm,Calm,-,N/A,,Unknown,0,2013-07-27 02:35:00
10:55 PM,68.9,63.0,81,30.06,10.0,Calm,Calm,-,N/A,,Unknown,0,2013-07-27 02:55:00
11:15 PM,68.5,62.8,82,30.06,10.0,Calm,Calm,-,N/A,,Unknown,0,2013-07-27 03:15:00
11:35 PM,67.8,63.0,84,30.06,10.0,Calm,Calm,-,N/A,,Unknown,0,2013-07-27 03:35:00
11:55 PM,66.7,62.2,85,30.06,10.0,Calm,Calm,-,N/A,,Unknown,0,2013-07-27 03:55:00